Simultaneous Nadir Overpasses (SNOs) Predictions

Prediction of SNOs between AQUA and NPP Satellite Orbit:

Table of predicted SNOs for the next 14.0 days since TLE Epoch: 7/26/2013
Index Date (AQUA) Time (AQUA) Lat,Lon (AQUA) SZA (AQUA ) Date (NPP) Time (NPP) Lat,Lon (NPP) SZA (NPP ) Distance(km) Time Diff (sec)
1 07/27/2013 06:22:12 74.99, -39.31 79.96 07/27/2013 06:21:41 74.98, -39.40 80.01 2.63 31
2 07/27/2013 07:11:16 -76.15, 131.64 101.38 07/27/2013 07:12:02 -76.14, 131.58 101.40 1.88 46
3 07/29/2013 21:54:51 -56.34,-112.36 80.25 07/29/2013 21:53:38 -56.59,-113.75 79.96 89.94 73
4 07/29/2013 22:38:27 75.78, 78.75 79.66 07/29/2013 22:38:23 75.78, 78.83 79.64 2.54 4
5 07/29/2013 23:27:42 -76.38,-111.73 101.05 07/29/2013 23:28:56 -76.37,-111.83 101.09 2.87 74
6 08/01/2013 14:05:47 -74.97, 24.75 98.78 08/01/2013 14:04:54 -74.98, 24.83 98.76 2.66 53
7 08/01/2013 14:54:56 75.80,-165.32 80.28 08/01/2013 14:55:21 75.79,-165.39 80.28 2.36 25
8 08/04/2013 06:22:15 -75.09, 140.91 98.24 08/04/2013 06:21:51 -75.08, 140.87 98.21 1.25 24
9 08/04/2013 07:11:16 76.29, -47.91 80.37 08/04/2013 07:12:09 76.29, -47.90 80.32 0.41 53
10 08/06/2013 21:49:35 74.17, 86.88 83.49 08/06/2013 21:48:23 74.16, 86.83 83.56 1.65 72
11 08/06/2013 22:38:31 -75.78,-101.28 98.33 08/06/2013 22:38:35 -75.78,-101.20 98.36 2.44 4




NCC Satellite Simultaneous Nadir Overpasses (SNOs) Prediction Service
